Location: Gorze? G�rny
(49.8500°N, 19.5000°E)
Time: 13:15:34
(UTC+00:00)

SJ 16-02 - Pass Details

Date: 13 May 2021
Orbit: 606 x 616 km, 75.0° (Epoch: 22 June)

Event Time Altitude Azimuth Distance (km) Brightness Sun altitude
Exits shadow 20:08:59 - 204° (SSW) 2,701 4.4 -14.0°
Reaches altitude 10° 20:10:47 10° 206° (SSW) 1,975 3.7 -14.2°
Maximum altitude 20:15:13 78° 293° (WNW) 636 1.5 -14.6°
Drops below altitude 10° 20:19:40 10° 20° (NNE) 1,990 4.5 -15.0°
Sets 20:21:56 0° 22° (NNE) 2,899 5.3 -15.2°
